sat.trackr.live / text

‹ back to catalog

STARLINK-36999

NORAD 68268 · 2026-055G

PAYLOAD ACTIVE UNKNOWN

§ Identity

Operator
Country
US
Launch date
2026-03-19
Launch site
AFETR
Launch vehicle
Mass (kg)
RCS (m²)

Purposes: comms

External: N2YO · Heavens-Above · Gunter

§ Orbital elements

Epoch: 2026-05-24T19:14:43.746144Z

Period
93.85 min
Inclination
53.1597°
Eccentricity
0.0000689
Mean motion
15.34404090 rev/d
Perigee alt
462.2 km
Apogee alt
463.2 km
Semi-major
6,840.8 km
B*
7.0300e-4
RAAN
324.3156°
Arg perigee
99.2975°
Mean anomaly
260.8106°
Rev number
1,160

§ Raw data

STARLINK-369991 68268U 26055G   26144.80189521  .00023453  00000+0  70300-3 0  99982 68268  53.1597 324.3156 0000689  99.2975 260.8106 15.34404090 11601

JSON: /api/v1/satellites/68268 · /tle

For live sub-satellite position, see the globe view (requires WebGL).

§ Visibility from observer

Set your observer location to see the next 7 days of passes ≥ 10°. The values pass through the URL so the page stays shareable.

No JS? Fill the form by hand. The geolocation button needs JavaScript.